EW7438 Weather Reports


time (UTC)temp
C
wind
direction
speed
KPH
gust
KPH
rain 1hr
cm
rain 24hr
cm
rain mn
cm
humidity
%
barometer
mb
20200229074631 18 355 11.3 14.5 0.03 0.03 0.03 79 1026.0
20200229073202 18 27 6.4 9.7 0.00 0.00 0.00 78 1026.2
20200229071600 19 27 6.4 12.9 0.00 0.00 0.00 77 1026.4
20200229070106 19 40 8.0 14.5 0.00 0.00 0.00 76 1026.7
20200229064713 20 40 11.3 19.3 0.00 0.00 0.00 75 1026.9
20200229063041 20 49 6.4 17.7 0.00 0.00 0.00 72 1027.0
20200229061615 20 346 12.9 19.3 0.00 0.00 0.00 72 1027.2
20200229060051 20 355 14.5 20.9 0.00 0.00 0.00 72 1027.4
20200229054527 20 5 14.5 20.9 0.00 0.00 0.00 72 1027.5
20200229053118 20 360 16.1 20.9 0.00 0.00 0.00 72 1027.7
20200229051618 20 9 12.9 19.3 0.00 0.00 0.00 72 1027.6
20200229050116 20 9 16.1 22.5 0.00 0.00 0.00 72 1027.6
20200229044602 20 355 16.1 24.1 0.00 0.00 0.00 71 1027.6
20200229043106 20 360 11.3 20.9 0.00 0.00 0.00 71 1027.6
20200229041624 20 5 14.5 20.9 0.00 0.00 0.00 71 1027.7
20200229040017 20 5 16.1 27.4 0.00 0.00 0.00 70 1027.6
20200229033015 20 15 17.7 24.1 0.00 0.00 0.00 69 1027.6
20200229031530 20 9 12.9 24.1 0.00 0.00 0.00 69 1027.5
20200229030026 20 5 17.7 25.7 0.00 0.00 0.00 69 1027.4
20200229024547 20 355 16.1 22.5 0.00 0.00 0.00 69 1027.4
20200229023013 20 22 19.3 25.7 0.00 0.00 0.00 68 1027.2
20200229021542 20 346 16.1 25.7 0.00 0.00 0.00 68 1027.0
20200229020018 20 5 16.1 22.5 0.00 0.00 0.00 68 1026.9
20200229014509 20 14 12.9 22.5 0.00 0.00 0.00 68 1026.5
20200229013010 20 5 16.1 25.7 0.00 0.00 0.00 67 1026.2
20200229011514 20 5 16.1 22.5 0.00 0.00 0.00 67 1025.9
20200229010010 20 350 14.5 24.1 0.00 0.00 0.00 66 1025.9
20200229004508 20 26 17.7 25.7 0.00 0.00 0.00 66 1025.7
20200229003006 20 360 16.1 27.4 0.00 0.00 0.00 66 1025.5
20200229001506 20 9 14.5 25.7 0.00 0.00 0.00 66 1025.4
20200229000036 20 360 19.3 30.6 0.00 0.00 0.00 66 1025.4
20200228234508 20 5 20.9 30.6 0.00 0.00 0.00 66 1025.4
20200228233002 20 13 25.7 33.8 0.00 0.00 0.00 65 1025.4
20200228231503 20 355 24.1 33.8 0.00 0.00 0.00 65 1025.2
20200228224809 21 5 20.9 37.0 0.00 0.00 0.00 63 1025.1
20200228223158 21 9 25.7 37.0 0.00 0.00 0.00 62 1025.0
20200228221654 21 5 27.4 38.6 0.00 0.00 0.00 60 1025.0
20200228220125 22 351 22.5 37.0 0.00 0.00 0.00 60 1024.9
20200228214730 22 10 27.4 37.0 0.00 0.00 0.00 59 1024.9
20200228213201 22 28 25.7 38.6 0.00 0.00 0.00 58 1024.8
20200228211722 22 34 19.3 32.2 0.00 0.00 0.00 58 1024.7
20200228210142 22 360 22.5 30.6 0.00 0.00 0.00 57 1024.9
20200228204612 23 43 24.1 33.8 0.00 0.00 0.00 55 1024.8
20200228203149 23 355 20.9 32.2 0.00 0.00 0.00 55 1025.0
20200228201614 23 20 22.5 33.8 0.00 0.00 0.00 55 1025.2
20200228200114 22 38 20.9 32.2 0.00 0.00 0.00 55 1025.4
20200228194651 23 351 25.7 32.2 0.00 0.00 0.00 54 1025.5
20200228193107 23 19 24.1 35.4 0.00 0.00 0.00 53 1025.7
20200228191701 23 28 17.7 32.2 0.00 0.00 0.00 53 1025.9
20200228190118 22 33 16.1 24.1 0.00 0.00 0.00 53 1026.1
20200228184620 22 5 17.7 29.0 0.00 0.00 0.00 53 1026.3
20200228183145 22 25 17.7 27.4 0.00 0.00 0.00 53 1026.5
20200228181631 22 5 16.1 25.7 0.00 0.00 0.00 48 1026.7
20200228180101 22 36 12.9 24.1 0.00 0.00 0.00 50 1026.8
20200228174716 22 28 17.7 25.7 0.00 0.00 0.00 52 1026.9
20200228173230 22 355 16.1 22.5 0.00 0.00 0.00 52 1027.1
20200228171559 21 9 14.5 27.4 0.00 0.00 0.00 54 1027.2
20200228170058 22 5 17.7 22.5 0.00 0.00 0.00 54 1027.4
20200228164634 21 343 11.3 19.3 0.00 0.00 0.00 53 1027.5
20200228163102 22 18 9.7 17.7 0.00 0.00 0.00 54 1027.5
20200228161635 21 5 14.5 19.3 0.00 0.00 0.00 54 1027.5
20200228160110 21 351 12.9 20.9 0.00 0.00 0.00 53 1027.4
20200228154641 21 5 14.5 19.3 0.00 0.00 0.00 54 1027.3
20200228153121 21 355 11.3 17.7 0.00 0.00 0.00 54 1027.1
20200228151550 21 355 8.0 16.1 0.00 0.00 0.00 55 1026.9
20200228150241 20 346 11.3 17.7 0.00 0.00 0.00 55 1026.7
20200228144542 20 339 9.7 16.1 0.00 0.00 0.00 55 1026.4
20200228143015 20 320 8.0 17.7 0.00 0.00 0.00 54 1026.3
20200228141539 19 308 11.3 16.1 0.00 0.00 0.00 55 1026.0
20200228140020 18 315 8.0 14.5 0.00 0.00 0.00 56 1025.9
20200228134509 18 317 8.0 14.5 0.00 0.00 0.00 59 1025.8
20200228133006 18 318 4.8 6.4 0.00 0.00 0.00 60 1025.7
20200228131505 17 318 3.2 6.4 0.00 0.00 0.00 61 1025.6
20200228130005 17 318 3.2 6.4 0.00 0.00 0.00 61 1025.4
20200228124641 17 318 3.2 4.8 0.00 0.00 0.00 60 1025.1
20200228123230 17 318 3.2 6.4 0.00 0.00 0.00 59 1025.1
20200228121718 17 318 3.2 6.4 0.00 0.00 0.00 59 1024.9
20200228120159 17 318 6.4 8.0 0.00 0.00 0.00 59 1024.7
20200228114649 17 318 3.2 6.4 0.00 0.00 0.00 59 1024.6
20200228113116 18 318 3.2 6.4 0.00 0.00 0.00 58 1024.5
20200228111719 18 318 4.8 8.0 0.00 0.00 0.00 57 1024.4
20200228110118 18 318 3.2 8.0 0.00 0.00 0.00 57 1024.4
20200228104644 18 318 6.4 9.7 0.00 0.00 0.00 56 1024.2
20200228103154 18 318 4.8 9.7 0.00 0.00 0.00 56 1024.1
20200228101656 18 318 4.8 6.4 0.00 0.00 0.00 56 1024.2
20200228100144 18 318 3.2 8.0 0.00 0.00 0.00 55 1024.2
20200228094810 18 318 3.2 6.4 0.00 0.00 0.00 54 1024.2
20200228093120 18 318 4.8 8.0 0.00 0.00 0.00 54 1024.4
20200228091700 18 318 4.8 8.0 0.00 0.00 0.00 55 1024.5
20200228090113 18 318 4.8 9.7 0.00 0.00 0.00 54 1024.6
20200228084617 18 318 4.8 8.0 0.00 0.00 0.00 54 1024.7
20200228083147 18 318 4.8 8.0 0.00 0.00 0.00 55 1024.8
20200228081738 18 318 3.2 8.0 0.00 0.00 0.00 54 1024.9
20200228080105 17 318 4.8 8.0 0.00 0.00 0.00 54 1025.0